User: anonymous   Login
Location: Unspecified
(0.0000°N, 0.0000°E)
Time: 11:40:12
(UTC+00:00)
Language:

Meteosat 2 - Orbit

View from above orbital plane
View from above orbital plane
View from above satellite
View from above satellite

Ground track
Ground track

The orbit data is extracted from the following two-line orbital elements,

1 12544U 81057A   21015.83584334 -.00000120  00000-0  00000-0 0  9998
2 12544  13.5331 334.6102 0032774 335.8099 214.2491  0.98723487104313
Epoch (UTC): 15 January 2021 20:03:36
Eccentricity: 0.0032774
inclination: 13.5331°
perigee height: 36086 km
apogee height: 36365 km
right ascension of ascending node: 334.6102°
argument of perigee: 335.8099°
revolutions per day: 0.98723487
mean anomaly at epoch: 214.2491°
orbit number at epoch: 10431

The dashed part of the orbit path shows where the satellite is in the earth's shadow,  

DLR